ETNT Airport Information

Runway Information
Runway 08 Length 8005 ft width 98 ft
Elevation 23 ft Threshold 0 ft Heading 78
Runway 26 Length 8005 ft Width 98 ft
Elevation 19 ft Threshold 0 ft Heading 258
Airport Frequencies
Type ACC Name BREMEN CON Frequency 124.075 MHZ
Type RDR Name WITTMUND R Frequency 25.87 MHZ
Type RDR Name WITTMUND R Frequency 36.89 MHZ
Type RDR Name WITTMUND R Frequency 123.3 MHZ
Type TWR Name WITTMUND T Frequency 118.725 MHZ
Airport Navaids
Airport Weather Information & NOTAM
ADDS - METARS form results

(0947 UTC 23 July 2018)
 
METAR text: ETNT 230920Z 22004KT 9999 FEW028 23/14 Q1017 BLU+BLU+
Conditions at: ETNT (WITTMUNDHAVEN(GA, DE) observed 0920 UTC 23 July 2018
Temperature: 23.0°C (73°F)
Dewpoint: 14.0°C (57°F) [RH = 57%]
Pressure (altimeter): 30.03 inches Hg (1017.0 mb)
Winds: from the SW (220 degrees) at 5 MPH (4 knots; 2.1 m/s)
Visibility: 6 or more miles (10+ km)
Ceiling: at least 12,000 feet AGL
Clouds: few clouds at 2800 feet AGL
Weather: no significant weather observed at this time